[[{"header":{"parameterUnit":"m.s-1","parameterCategory":2,"la1":30.2991,"la2":30.254,"lo1":-89.0895,"lo2":-89.0444,"dy":0.0017,"dx":0.0017,"nx":28,"ny":28,"refTime":"2023-03-22T21:00:00:Z","depth":"0","parameterNumber":2,"parameterNumberName":"U-component_of_CURRENTS"},"data":[0,0,0,0,0,0,0,0,0,0,0,0,0,0,0,0,0,0,0,0,0,0,0,0,0,0,0,0,0,0,0,0,0,0,0,0,0,0,0,0,0,0,0,0,0,0,0,0,0,0,0,0,0,0,0,0,0,0,0.2637,0.2637,0,0.264,0.264,0.264,0.2653,0.2654,0.2654,0.2655,0.2701,0.2702,0.2703,0,0,0,0,0,0,0,0,0,0,0,0,0,0.265,0.265,0.2637,0.2637,0.2637,0.264,0.264,0.264,0.2653,0.2654,0.2654,0.2655,0.2701,0.2702,0.2703,0,0,0,0,0,0,0,0,0,0,0,0,0,0.2646,0.2649,0.2637,0.2646,0.2647,0.264,0.264,0.264,0.2653,0.2654,0.2655,0.2655,0.2701,0.2702,0.2703,0.2695,0,0,0.2707,0.2707,0,0,0,0,0,0,0,0,0.2646,0.2645,0.2644,0.2645,0.2646,0.2649,0.2662,0.2661,0.2653,0.2648,0.2655,0.2656,0.2689,0.2691,0.2686,0.2697,0.2699,0.2707,0.2707,0.2708,0.2708,0,0,0,0,0,0,0,0.2646,0.2645,0.2636,0.2645,0.2646,0.2653,0.2653,0.2662,0.2663,0.2649,0.265,0.2654,0.269,0.2685,0.2687,0.2699,0.2707,0.2708,0.2708,0.2709,0.2717,0.2717,0,0,0,0,0,0,0.2649,0.2645,0.2636,0.2636,0.2651,0.2652,0.2652,0.2646,0.2662,0.2666,0.2653,0.2655,0.2682,0.2686,0.2689,0.2677,0.2708,0.2709,0.271,0.2718,0.2717,0.2717,0,0,0,0,0,0,0.2649,0.2648,0.2635,0.2643,0.2643,0.2651,0.2644,0.2645,0.2639,0.2666,0.267,0.2647,0.2683,0.2688,0.2686,0.2679,0.2709,0.271,0.2718,0.2718,0.2717,0.2654,0,0,0,0,0,0,0.2649,0.2647,0.2636,0.2643,0.2642,0.2624,0.2643,0.2645,0.2642,0.2643,0.2661,0.2666,0.2684,0.2684,0.2687,0.2681,0.2711,0.2719,0.2718,0.2717,0.2657,0.2651,0.2647,0,0,0,0,0,0.265,0.2628,0.2636,0.2634,0.2629,0.2624,0.2623,0.2631,0.2641,0.263,0.264,0.2666,0.2681,0.2683,0.2688,0.2682,0.2719,0.2718,0.2717,0.2659,0.2652,0.2647,0,0,0,0,0,0,0.2625,0.2628,0.2636,0.2616,0.2619,0.2627,0.2615,0.2625,0.2623,0.2625,0.2651,0.2656,0.2662,0.2675,0.2677,0.2683,0.2708,0.2708,0.2663,0.2657,0.2652,0.2643,0.2712,0,0,0,0,0,0.2616,0.26,0.2612,0.2593,0.2594,0.2604,0.2601,0.2609,0.2614,0.2613,0.2623,0.264,0.266,0.2659,0.268,0.2667,0.2701,0.267,0.2665,0.266,0.2657,0.2714,0.2714,0.2713,0.2713,0.2713,0,0,0.2601,0.26,0.2591,0.2587,0.2588,0.2578,0.2602,0.2594,0.2584,0.2619,0.2598,0.2627,0.2657,0.2654,0.2657,0.266,0.2673,0.2659,0.2655,0.2654,0.2713,0.2713,0.2713,0.2713,0.2713,0.2713,0,0,0.2563,0.2563,0.254,0.2542,0.2545,0.2551,0.2549,0.2552,0.255,0.2538,0.2572,0.2584,0.2596,0.2614,0.2628,0.2603,0.2656,0.2619,0.2571,0.2627,0.2627,0.2629,0.2647,0.2651,0.2603,0.2603,0.2603,0,0.2546,0.2522,0.2532,0.2517,0.2511,0.2538,0.2516,0.2518,0.2518,0.2512,0.2524,0.2553,0.2577,0.2585,0.2579,0.2592,0.2627,0.259,0.2621,0.2623,0.2625,0.2644,0.2649,0.2599,0.26,0.26,0.26,0,0.25,0.2483,0.2469,0.2458,0.2451,0.2437,0.2448,0.2438,0.2443,0.2448,0.2455,0.2485,0.2505,0.2516,0.2538,0.2563,0.2583,0.2619,0.2635,0.2621,0.2642,0.2648,0.2595,0.2596,0.2597,0.2598,0,0,0.2459,0.2439,0.2436,0.2418,0.242,0.2406,0.2389,0.2378,0.2367,0.2376,0.2363,0.2396,0.2426,0.2444,0.2482,0.2515,0.2552,0.2567,0.2571,0.2582,0.2659,0.2549,0.2546,0.2608,0.2609,0.261,0.2658,0,0.2421,0.2377,0.2378,0.2335,0.2313,0.2328,0.231,0.2307,0.2311,0.2306,0.2341,0.2358,0.2397,0.2416,0.2455,0.2546,0.257,0.2534,0.2673,0.2676,0.258,0.2549,0.2317,0.233,0.2664,0.2665,0.2666,0,0.2378,0.2354,0.2304,0.2272,0.2263,0.2246,0.2222,0.2213,0.2224,0.2231,0.2254,0.2297,0.2344,0.2387,0.2509,0.2493,0.2566,0.2624,0.2628,0.2554,0.2578,0.2404,0.2329,0.2145,0.2675,0.2675,0.2674,0,0.234,0.23,0.2254,0.2245,0.2218,0.2197,0.2188,0.2188,0.2174,0.2198,0.2194,0.2264,0.2297,0.2411,0.2517,0.2535,0.2647,0.269,0.2648,0.2641,0.248,0.2455,0.2238,0.2769,0.2769,0.2769,0.2769,0,0.2297,0.226,0.2234,0.221,0.2159,0.216,0.2118,0.2122,0.2126,0.2108,0.2165,0.2167,0.2313,0.2386,0.2502,0.2571,0.264,0.2624,0.2644,0.2446,0.242,0.2285,0.2246,0.2771,0.277,0.277,0.277,0,0.2258,0.2242,0.2189,0.2154,0.2139,0.2107,0.2075,0.205,0.2066,0.2048,0.2058,0.2108,0.2197,0.2315,0.2482,0.2522,0.2501,0.2633,0.2363,0.2349,0.2116,0.2084,0.1967,0.1943,0.2587,0.2584,0.2582,0,0.2231,0.22,0.2148,0.2114,0.2095,0.2052,0.2021,0.2023,0.2004,0.2008,0.1997,0.2053,0.2074,0.2224,0.2311,0.2437,0.2392,0.2278,0.2259,0.2035,0.2018,0.2016,0.2008,0.2022,0.2016,0.201,0.2006,0,0.2178,0.2162,0.2121,0.2057,0.2013,0.1962,0.1928,0.1907,0.191,0.1893,0.1886,0.19,0.1977,0.1957,0.2065,0.2131,0.2056,0.2172,0.2017,0.16,0.1509,0.1516,0.2048,0.1959,0.1963,0.1967,0.197,0.1971,0.2137,0.2101,0.2046,0.1975,0.1927,0.1869,0.1817,0.1793,0.1751,0.1703,0.1767,0.1719,0.1627,0.173,0.1772,0.1564,0.1776,0.1471,0.1467,0.15,0.1397,0.1797,0.1687,0.169,0.1692,0.1695,0.1697,0,0.2057,0.2017,0.1961,0.1868,0.179,0.1793,0.1736,0.1678,0.1608,0.1574,0.1549,0.1364,0.1217,0.1153,0.0926,0.0825,0.0897,0.0776,0.0681,0.0736,0.1113,0.0999,0.0637,0.0637,0.0637,0.0637,0.0637,0.0638,0.2006,0.1923,0.1889,0.1742,0.1685,0.1572,0.1535,0.1471,0.1424,0.1262,0.1127,0.1089,0.0779,0.0352,0.0066,0.0108,0.0118,0.008,0.024,0.0394,0.0457,0.0518,0.0396,-0.0087,-0.0088,-0.0215,-0.0218,-0.0219]},{"header":{"parameterUnit":"m.s-1","parameterCategory":2,"la1":30.2991,"la2":30.254,"lo1":-89.0895,"lo2":-89.0444,"dy":0.0017,"dx":0.0017,"nx":28,"ny":28,"refTime":"2023-03-22T21:00:00:Z","depth":"0","parameterNumber":3,"parameterNumberName":"V-component_of_CURRENTS"},"data":[0,0,0,0,0,0,0,0,0,0,0,0,0,0,0,0,0,0,0,0,0,0,0,0,0,0,0,0,0,0,0,0,0,0,0,0,0,0,0,0,0,0,0,0,0,0,0,0,0,0,0,0,0,0,0,0,0,0,0.0363,0.0363,0,0.038,0.0381,0.0381,0.0397,0.0397,0.0396,0.0396,0.0419,0.042,0.0421,0,0,0,0,0,0,0,0,0,0,0,0,0,0.0377,0.0377,0.0363,0.0363,0.0363,0.038,0.0381,0.0381,0.0397,0.0397,0.0396,0.0396,0.0419,0.042,0.0421,0,0,0,0,0,0,0,0,0,0,0,0,0,0.0384,0.0377,0.0363,0.037,0.037,0.038,0.0381,0.0381,0.0397,0.0397,0.0396,0.0396,0.0419,0.042,0.0421,0.0433,0,0,0.0424,0.0425,0,0,0,0,0,0,0,0,0.0384,0.0384,0.0369,0.0369,0.037,0.0383,0.0394,0.0397,0.0397,0.0391,0.0396,0.0396,0.0405,0.0407,0.0416,0.0434,0.0435,0.0424,0.0425,0.0425,0.0426,0,0,0,0,0,0,0,0.0383,0.0383,0.0374,0.0369,0.0369,0.0383,0.0384,0.0395,0.0402,0.0391,0.0392,0.0387,0.0406,0.0415,0.0417,0.0435,0.0424,0.0425,0.0426,0.0426,0.0466,0.0467,0,0,0,0,0,0,0.0372,0.0383,0.0373,0.0374,0.0372,0.0383,0.0384,0.0382,0.0402,0.0404,0.0388,0.0388,0.0414,0.0416,0.0418,0.0441,0.0425,0.0427,0.0427,0.0466,0.0466,0.0467,0,0,0,0,0,0,0.0372,0.0371,0.0372,0.0376,0.0376,0.0382,0.038,0.0382,0.0389,0.0398,0.0401,0.0391,0.0413,0.0416,0.0428,0.0442,0.0427,0.0428,0.0465,0.0466,0.0467,0.0483,0,0,0,0,0,0,0.0372,0.0371,0.0371,0.0375,0.0375,0.0379,0.038,0.0383,0.0385,0.0386,0.0403,0.0405,0.0413,0.0426,0.0429,0.0443,0.0429,0.0465,0.0466,0.0466,0.0482,0.0484,0.0485,0,0,0,0,0,0.0373,0.0368,0.0371,0.037,0.0374,0.0378,0.0381,0.0387,0.0386,0.0392,0.0401,0.0404,0.0433,0.0427,0.0431,0.0445,0.0465,0.0465,0.0466,0.0481,0.0483,0.0485,0,0,0,0,0,0,0.037,0.0369,0.0372,0.0366,0.0373,0.0379,0.038,0.0385,0.0399,0.0398,0.0408,0.0412,0.0427,0.0432,0.0425,0.0458,0.045,0.0451,0.0459,0.0462,0.0464,0.0463,0.043,0,0,0,0,0,0.037,0.0368,0.037,0.0367,0.0367,0.0375,0.0377,0.0383,0.0391,0.0396,0.0408,0.042,0.0434,0.0443,0.0454,0.0472,0.0469,0.0484,0.0485,0.0487,0.0488,0.0488,0.049,0.047,0.047,0.047,0,0,0.0367,0.0365,0.0365,0.0367,0.037,0.0377,0.0377,0.0379,0.0392,0.0396,0.0416,0.0425,0.0439,0.046,0.0468,0.0466,0.0492,0.0488,0.049,0.049,0.0489,0.0491,0.0493,0.047,0.047,0.047,0,0,0.0359,0.036,0.0356,0.0363,0.0366,0.0374,0.0374,0.0383,0.0395,0.0412,0.0421,0.0436,0.0457,0.0475,0.0485,0.0503,0.0499,0.0507,0.0521,0.0521,0.0523,0.0524,0.0524,0.0525,0.0511,0.0511,0.0511,0,0.0356,0.0354,0.0357,0.0358,0.0365,0.0372,0.0378,0.0392,0.0409,0.0424,0.0418,0.0456,0.0466,0.0499,0.0506,0.0509,0.0504,0.0512,0.0523,0.0524,0.0526,0.0525,0.0526,0.0512,0.0512,0.0512,0.0512,0,0.0347,0.0352,0.0348,0.0357,0.0368,0.0373,0.039,0.0408,0.0419,0.0436,0.0465,0.0478,0.0503,0.051,0.0514,0.0535,0.0528,0.0522,0.0517,0.0529,0.0528,0.0528,0.0513,0.0513,0.0513,0.0513,0,0,0.0326,0.034,0.034,0.0352,0.0371,0.0379,0.0404,0.0433,0.0458,0.0472,0.0504,0.0525,0.0532,0.0543,0.0552,0.0554,0.0559,0.0542,0.0542,0.0541,0.0557,0.0575,0.0577,0.0552,0.0552,0.0552,0.0554,0,0.0319,0.0325,0.0338,0.0358,0.0365,0.0392,0.042,0.0451,0.0477,0.0512,0.0529,0.0558,0.0545,0.0561,0.0561,0.0567,0.0562,0.0559,0.0547,0.0546,0.056,0.0579,0.0648,0.0658,0.0555,0.0555,0.0555,0,0.0306,0.0315,0.0328,0.0369,0.0375,0.0392,0.0445,0.0472,0.0524,0.0545,0.0573,0.0589,0.0612,0.0589,0.0593,0.059,0.0571,0.0564,0.0563,0.0575,0.0566,0.0629,0.0663,0.0677,0.0556,0.0556,0.0556,0,0.029,0.0312,0.0325,0.0337,0.0379,0.0399,0.0427,0.048,0.0515,0.0567,0.0597,0.062,0.0641,0.0621,0.0616,0.0601,0.0612,0.0589,0.0583,0.0584,0.0639,0.0645,0.0685,0.0573,0.0573,0.0573,0.0573,0,0.028,0.0292,0.0319,0.0327,0.0359,0.0391,0.0436,0.0473,0.053,0.0579,0.0609,0.0652,0.0647,0.0661,0.0632,0.0626,0.0624,0.0591,0.0589,0.0647,0.0653,0.0663,0.0671,0.0573,0.0573,0.0573,0.0573,0,0.0262,0.0277,0.0297,0.0336,0.035,0.0374,0.0437,0.0477,0.0527,0.0592,0.0611,0.0678,0.0709,0.0703,0.069,0.0657,0.0675,0.063,0.0702,0.0708,0.0705,0.0711,0.0775,0.0804,0.0621,0.0622,0.0622,0,0.0253,0.026,0.0297,0.0317,0.0334,0.0374,0.0412,0.0468,0.0517,0.0613,0.0651,0.0709,0.0776,0.078,0.0757,0.0729,0.072,0.0732,0.071,0.0724,0.0729,0.0747,0.0769,0.0789,0.0791,0.0792,0.0793,0,0.0245,0.0257,0.028,0.0318,0.0352,0.0401,0.0457,0.049,0.0571,0.0633,0.0729,0.0791,0.0837,0.0887,0.0858,0.0823,0.0796,0.0758,0.0762,0.086,0.0895,0.0917,0.0762,0.0806,0.0805,0.0804,0.0803,0.0803,0.0243,0.0264,0.0299,0.0338,0.0381,0.0446,0.0489,0.0553,0.0638,0.0744,0.0789,0.0897,0.0971,0.0974,0.0938,0.0914,0.089,0.0886,0.0891,0.0905,0.0949,0.0819,0.0864,0.0863,0.0863,0.0862,0.0861,0,0.0257,0.0291,0.0324,0.0385,0.0438,0.046,0.054,0.0588,0.0686,0.0777,0.0868,0.1016,0.1088,0.1091,0.1082,0.1056,0.1057,0.103,0.1078,0.1089,0.0969,0.0991,0.108,0.108,0.1079,0.1079,0.1079,0.1079,0.0273,0.0315,0.0341,0.0434,0.0478,0.0553,0.0602,0.0663,0.0731,0.0855,0.0955,0.1038,0.1076,0.1174,0.117,0.1159,0.1183,0.1198,0.1166,0.1082,0.1069,0.1056,0.1078,0.1183,0.1183,0.1323,0.1324,0.1325]}],[{"header":{"parameterUnit":"m.s-1","parameterCategory":2,"la1":30.2991,"la2":30.254,"lo1":-89.0895,"lo2":-89.0444,"dy":0.0017,"dx":0.0017,"nx":28,"ny":28,"refTime":"2023-03-22T21:00:00:Z","depth":"2","parameterNumber":2,"parameterNumberName":"U-component_of_CURRENTS"},"data":[0,0,0,0,0,0,0,0,0,0,0,0,0,0,0,0,0,0,0,0,0,0,0,0,0,0,0,0,0,0,0,0,0,0,0,0,0,0,0,0,0,0,0,0,0,0,0,0,0,0,0,0,0,0,0,0,0,0,0.1567,0.1567,0,0.1546,0.1545,0.1545,0.1545,0.1546,0.1546,0.1547,0.1514,0.1513,0.1511,0,0,0,0,0,0,0,0,0,0,0,0,0,0.1624,0.1622,0.1567,0.1567,0.1567,0.1546,0.1545,0.1545,0.1545,0.1546,0.1546,0.1547,0.1515,0.1513,0.1511,0,0,0,0,0,0,0,0,0,0,0,0,0,0.1597,0.1622,0.1567,0.1567,0.1567,0.1546,0.1545,0.1544,0.1545,0.1546,0.1547,0.1547,0.1515,0.1513,0.1511,0.148,0,0,0.1505,0.1504,0,0,0,0,0,0,0,0,0.1599,0.1595,0.1567,0.1567,0.1567,0.1552,0.1553,0.1523,0.1545,0.155,0.1547,0.1548,0.1527,0.1524,0.1514,0.1478,0.1477,0.1504,0.1503,0.1502,0.1502,0,0,0,0,0,0,0,0.16,0.1596,0.1555,0.1567,0.1567,0.1574,0.1571,0.1548,0.1531,0.1549,0.155,0.1553,0.1527,0.1516,0.1513,0.1477,0.1504,0.1502,0.1501,0.15,0.1505,0.1506,0,0,0,0,0,0,0.1608,0.1597,0.1556,0.1555,0.1589,0.1572,0.1569,0.1553,0.1531,0.153,0.1552,0.1553,0.1519,0.1515,0.1512,0.1557,0.1502,0.15,0.1499,0.1504,0.1505,0.1507,0,0,0,0,0,0,0.1609,0.1603,0.1557,0.158,0.1575,0.1571,0.1553,0.1552,0.1566,0.1534,0.1532,0.157,0.1519,0.1515,0.1516,0.1553,0.1499,0.1497,0.1502,0.1504,0.1506,0.1594,0,0,0,0,0,0,0.161,0.1603,0.1608,0.1579,0.1574,0.1557,0.1553,0.1551,0.1566,0.1567,0.1548,0.1545,0.152,0.1519,0.1513,0.1549,0.1496,0.15,0.1503,0.1505,0.159,0.1599,0.1607,0,0,0,0,0,0.1612,0.1604,0.1608,0.1605,0.1575,0.1558,0.1555,0.1554,0.1566,0.157,0.1566,0.1547,0.1533,0.1518,0.1511,0.1547,0.1499,0.1502,0.1505,0.1586,0.1597,0.1607,0,0,0,0,0,0,0.1632,0.1603,0.1607,0.1592,0.1587,0.156,0.1567,0.1569,0.1567,0.1579,0.1552,0.1548,0.1563,0.1541,0.1526,0.1557,0.1517,0.1519,0.1581,0.1591,0.16,0.1606,0.1494,0,0,0,0,0,0.1639,0.1628,0.1608,0.1602,0.16,0.1591,0.1591,0.1592,0.1582,0.1584,0.1574,0.157,0.1565,0.1569,0.1552,0.1564,0.1568,0.1586,0.1595,0.1603,0.1604,0.1645,0.1658,0.1517,0.1517,0.1517,0,0,0.1647,0.1632,0.1627,0.1608,0.1603,0.1601,0.1593,0.1598,0.1607,0.1579,0.1596,0.1593,0.1573,0.1588,0.1595,0.158,0.165,0.1607,0.1614,0.1611,0.1649,0.1663,0.1675,0.1519,0.1519,0.1519,0,0,0.1652,0.1643,0.1638,0.1634,0.1635,0.1626,0.1635,0.1626,0.1635,0.1646,0.1639,0.1662,0.1646,0.165,0.1647,0.1694,0.169,0.1698,0.1755,0.1795,0.1807,0.1817,0.1865,0.1879,0.1711,0.1711,0.1711,0,0.1672,0.1655,0.1638,0.1637,0.1642,0.1641,0.1648,0.1649,0.1648,0.1663,0.1664,0.1684,0.1675,0.1703,0.1731,0.1716,0.174,0.1717,0.1808,0.1818,0.1827,0.1873,0.1887,0.1716,0.1715,0.1715,0.1714,0,0.1666,0.1669,0.1667,0.1663,0.1665,0.1671,0.167,0.1687,0.1707,0.1714,0.1753,0.1753,0.1771,0.1783,0.1773,0.184,0.1839,0.181,0.1783,0.1847,0.1891,0.1904,0.1722,0.1721,0.1719,0.1718,0,0,0.1677,0.1666,0.1671,0.168,0.1684,0.1682,0.1704,0.1721,0.1746,0.1772,0.1811,0.1838,0.186,0.1859,0.1865,0.191,0.2013,0.1903,0.1903,0.1954,0.2121,0.1965,0.1965,0.2008,0.2011,0.2012,0.2135,0,0.1689,0.1689,0.1683,0.1702,0.1705,0.1715,0.1733,0.1754,0.1777,0.1812,0.1846,0.1879,0.1881,0.1913,0.196,0.1987,0.2048,0.1983,0.2047,0.2049,0.1905,0.1974,0.1683,0.1753,0.2148,0.215,0.2151,0,0.1693,0.1692,0.1707,0.1723,0.1727,0.1747,0.1784,0.1799,0.1842,0.1866,0.1917,0.1933,0.201,0.1997,0.2104,0.2067,0.2112,0.2135,0.2139,0.1965,0.1915,0.1747,0.1762,0.2173,0.2171,0.217,0.2168,0,0.1706,0.1715,0.1731,0.1735,0.1748,0.1776,0.1795,0.183,0.1845,0.1914,0.1935,0.2014,0.2053,0.2127,0.2169,0.2161,0.2269,0.2256,0.2162,0.2153,0.1898,0.186,0.2343,0.2343,0.2343,0.2342,0.2342,0,0.171,0.1729,0.1745,0.1753,0.1785,0.1798,0.1841,0.1867,0.1904,0.192,0.1975,0.1998,0.2088,0.2141,0.2199,0.2207,0.2299,0.2182,0.2171,0.1921,0.1885,0.223,0.2215,0.2347,0.2346,0.2345,0.2344,0,0.1717,0.1726,0.175,0.1778,0.1793,0.1823,0.1856,0.187,0.1915,0.194,0.1965,0.2013,0.2083,0.2146,0.2253,0.2213,0.2257,0.224,0.1937,0.1885,0.2122,0.2111,0.2173,0.2168,0.2164,0.2161,0.2159,0,0.1712,0.1727,0.1769,0.1782,0.1802,0.184,0.1851,0.1885,0.1888,0.1933,0.1933,0.2002,0.2015,0.2084,0.1998,0.2033,0.2204,0.182,0.1731,0.212,0.2105,0.2099,0.2093,0.1461,0.1453,0.1446,0.1441,0,0.1709,0.174,0.1751,0.178,0.1804,0.1813,0.1834,0.183,0.1855,0.1867,0.1876,0.1893,0.1854,0.1691,0.1674,0.1676,0.1781,0.1681,0.2178,0.1522,0.1451,0.1435,0.1452,0.1381,0.1387,0.1392,0.1395,0.1397,0.1713,0.1724,0.1747,0.1769,0.1783,0.1773,0.1771,0.1763,0.1755,0.1691,0.1757,0.1599,0.1504,0.1248,0.1258,0.122,0.1379,0.1333,0.1354,0.1382,0.125,0.1172,0.1029,0.1033,0.1036,0.1039,0.1042,0,0.1692,0.171,0.1726,0.1735,0.1721,0.1757,0.1737,0.1685,0.1645,0.1482,0.1453,0.1048,0.0895,0.086,0.0633,0.0654,0.0672,0.0711,0.0698,0.0752,0.0802,0.0643,0.0261,0.026,0.0259,0.0258,0,0,0.1677,0.1676,0.1677,0.1661,0.168,0.1659,0.1647,0.1548,0.1396,0.1089,0.0817,0.0754,0.0666,0.0361,0.0387,0.0293,0.0547,0.0284,0.0881,0.091,0.096,0.11,0.0907,0,0,0,0,0]},{"header":{"parameterUnit":"m.s-1","parameterCategory":2,"la1":30.2991,"la2":30.254,"lo1":-89.0895,"lo2":-89.0444,"dy":0.0017,"dx":0.0017,"nx":28,"ny":28,"refTime":"2023-03-22T21:00:00:Z","depth":"2","parameterNumber":3,"parameterNumberName":"V-component_of_CURRENTS"},"data":[0,0,0,0,0,0,0,0,0,0,0,0,0,0,0,0,0,0,0,0,0,0,0,0,0,0,0,0,0,0,0,0,0,0,0,0,0,0,0,0,0,0,0,0,0,0,0,0,0,0,0,0,0,0,0,0,0,0,-0.0659,-0.066,0,-0.0714,-0.0715,-0.0715,-0.0795,-0.0796,-0.0798,-0.0799,-0.0892,-0.0893,-0.0894,0,0,0,0,0,0,0,0,0,0,0,0,0,-0.0618,-0.0619,-0.0659,-0.066,-0.066,-0.0714,-0.0715,-0.0715,-0.0795,-0.0796,-0.0798,-0.08,-0.0892,-0.0893,-0.0895,0,0,0,0,0,0,0,0,0,0,0,0,0,-0.0651,-0.0619,-0.0659,-0.0706,-0.0711,-0.0714,-0.0715,-0.0716,-0.0794,-0.0796,-0.0799,-0.08,-0.0891,-0.0893,-0.0895,-0.0865,0,0,-0.09,-0.0901,0,0,0,0,0,0,0,0,-0.0649,-0.0652,-0.0699,-0.0703,-0.0708,-0.075,-0.0734,-0.0767,-0.0794,-0.0763,-0.0799,-0.0801,-0.0846,-0.0852,-0.0857,-0.0869,-0.0873,-0.09,-0.0902,-0.0902,-0.0903,0,0,0,0,0,0,0,-0.0647,-0.065,-0.0681,-0.0699,-0.0705,-0.0723,-0.073,-0.0741,-0.0793,-0.0766,-0.0772,-0.0777,-0.085,-0.0855,-0.086,-0.0874,-0.09,-0.0902,-0.0903,-0.0904,-0.0954,-0.0954,0,0,0,0,0,0,-0.0637,-0.0648,-0.0679,-0.0682,-0.0683,-0.0722,-0.073,-0.0734,-0.0792,-0.0803,-0.0775,-0.078,-0.0851,-0.0858,-0.0864,-0.0894,-0.0902,-0.0904,-0.0905,-0.0954,-0.0954,-0.0954,0,0,0,0,0,0,-0.0636,-0.0639,-0.0677,-0.0667,-0.0673,-0.0721,-0.0725,-0.0734,-0.0772,-0.0799,-0.0811,-0.0807,-0.0853,-0.0861,-0.0896,-0.0896,-0.0905,-0.0906,-0.0953,-0.0954,-0.0954,-0.0914,0,0,0,0,0,0,-0.0635,-0.0639,-0.0651,-0.0666,-0.0673,-0.0688,-0.0723,-0.0734,-0.077,-0.0779,-0.0829,-0.0839,-0.0855,-0.0893,-0.0898,-0.0898,-0.0908,-0.0953,-0.0954,-0.0954,-0.0915,-0.0912,-0.0911,0,0,0,0,0,-0.0633,-0.0635,-0.0651,-0.0656,-0.0684,-0.0688,-0.0693,-0.0735,-0.077,-0.0779,-0.082,-0.0839,-0.09,-0.0895,-0.09,-0.0901,-0.0953,-0.0954,-0.0954,-0.0915,-0.0913,-0.0911,0,0,0,0,0,0,-0.0628,-0.0644,-0.0662,-0.0671,-0.0684,-0.0702,-0.0719,-0.0745,-0.0783,-0.0804,-0.0838,-0.0848,-0.0878,-0.0897,-0.089,-0.0919,-0.0931,-0.0932,-0.09,-0.0897,-0.0895,-0.0859,-0.0909,0,0,0,0,0,-0.0628,-0.0637,-0.0651,-0.0661,-0.0668,-0.0698,-0.0712,-0.0736,-0.0764,-0.0786,-0.0822,-0.0858,-0.0877,-0.0895,-0.0915,-0.0927,-0.0917,-0.0934,-0.0932,-0.093,-0.0906,-0.0896,-0.089,-0.0956,-0.0956,-0.0956,0,0,-0.063,-0.0641,-0.0648,-0.0662,-0.068,-0.068,-0.0713,-0.0734,-0.074,-0.0787,-0.0823,-0.0853,-0.088,-0.0895,-0.091,-0.0916,-0.0907,-0.0931,-0.0929,-0.0905,-0.0896,-0.0889,-0.0883,-0.0957,-0.0957,-0.0957,0,0,-0.0624,-0.0647,-0.0649,-0.0654,-0.0676,-0.0685,-0.0695,-0.0723,-0.0747,-0.0771,-0.0807,-0.0833,-0.0876,-0.0882,-0.0892,-0.089,-0.0897,-0.0914,-0.0872,-0.0864,-0.0858,-0.0852,-0.0827,-0.082,-0.0913,-0.0913,-0.0913,0,-0.063,-0.0633,-0.065,-0.0648,-0.0655,-0.0688,-0.0686,-0.0699,-0.0739,-0.0747,-0.0783,-0.0822,-0.0859,-0.0848,-0.0857,-0.0882,-0.0877,-0.0878,-0.0859,-0.0853,-0.0848,-0.0824,-0.0816,-0.0911,-0.0911,-0.0911,-0.0911,0,-0.0613,-0.0625,-0.0626,-0.0633,-0.0638,-0.0644,-0.0655,-0.0672,-0.0711,-0.0722,-0.0736,-0.077,-0.0788,-0.0811,-0.0837,-0.0818,-0.0826,-0.0855,-0.0857,-0.0838,-0.0815,-0.0807,-0.0908,-0.0909,-0.0909,-0.091,0,0,-0.0605,-0.0614,-0.0618,-0.0622,-0.0634,-0.0634,-0.0635,-0.0637,-0.0635,-0.0669,-0.0652,-0.0694,-0.0711,-0.0722,-0.0751,-0.0749,-0.0723,-0.0789,-0.0789,-0.0749,-0.0691,-0.0534,-0.0511,-0.0755,-0.0754,-0.0753,-0.0688,0,-0.0595,-0.0589,-0.0593,-0.0593,-0.0593,-0.0608,-0.0599,-0.0604,-0.0618,-0.0606,-0.062,-0.0618,-0.0675,-0.0679,-0.0685,-0.0713,-0.0702,-0.0736,-0.0727,-0.0726,-0.0577,-0.0496,-0.0537,-0.0467,-0.068,-0.0679,-0.0678,0,-0.058,-0.058,-0.0578,-0.0576,-0.0576,-0.0577,-0.0569,-0.0561,-0.054,-0.0542,-0.0529,-0.0538,-0.0523,-0.0579,-0.0584,-0.0608,-0.0641,-0.0661,-0.066,-0.0514,-0.0553,-0.0524,-0.0445,-0.0665,-0.0666,-0.0667,-0.0668,0,-0.0572,-0.0571,-0.0573,-0.0573,-0.0569,-0.0573,-0.0569,-0.0554,-0.0526,-0.0489,-0.0452,-0.0449,-0.042,-0.0464,-0.0505,-0.0552,-0.0498,-0.0571,-0.045,-0.0441,-0.0467,-0.0459,-0.0559,-0.056,-0.056,-0.056,-0.056,0,-0.0556,-0.056,-0.0575,-0.0576,-0.0568,-0.0567,-0.0544,-0.0531,-0.0478,-0.0416,-0.0415,-0.0352,-0.0392,-0.037,-0.0447,-0.0386,-0.045,-0.0394,-0.0393,-0.0451,-0.0443,-0.062,-0.0628,-0.0557,-0.0558,-0.0558,-0.0559,0,-0.0545,-0.0557,-0.0562,-0.0568,-0.0569,-0.0565,-0.0525,-0.0492,-0.0443,-0.035,-0.0322,-0.0257,-0.0208,-0.023,-0.0262,-0.0262,-0.0264,-0.024,-0.0278,-0.0277,-0.0235,-0.0243,-0.0081,-0.0075,-0.0069,-0.0065,-0.0061,0,-0.0535,-0.054,-0.056,-0.0562,-0.0571,-0.0558,-0.0537,-0.0487,-0.0435,-0.0294,-0.024,-0.0133,-0.0051,0.0019,0.0021,0.002,-0.0104,0.0003,-0.0068,-0.016,-0.0177,-0.0193,-0.0207,-0.0118,-0.0115,-0.0112,-0.011,0,-0.0515,-0.0538,-0.0539,-0.0552,-0.055,-0.0515,-0.048,-0.0426,-0.0334,-0.0246,-0.012,-0.0033,0.0114,0.0166,0.0249,0.0196,0.001,0.0067,-0.0035,-0.0192,-0.0177,-0.0199,-0.0216,-0.0087,-0.009,-0.0091,-0.0092,-0.0093,-0.0505,-0.0509,-0.0529,-0.0534,-0.052,-0.0475,-0.0434,-0.0366,-0.0266,-0.007,-0.0016,0.0174,0.0281,0.0459,0.0398,0.0302,0.0279,0.0189,0.0172,0.0154,0.018,0.0208,0.0374,0.0374,0.0374,0.0374,0.0375,0,-0.0483,-0.0503,-0.0505,-0.0507,-0.0479,-0.0473,-0.0391,-0.0321,-0.0206,0.0047,0.0197,0.0382,0.0489,0.0501,0.0412,0.0415,0.0291,0.0351,0.0151,0.0131,0.0113,0.0127,0.0311,0.0311,0.0311,0.0311,0,0,-0.0468,-0.0473,-0.0476,-0.0459,-0.0457,-0.0404,-0.0349,-0.0232,-0.0053,0.0202,0.0394,0.0687,0.0666,0.064,0.0539,0.04,0.0272,0.0374,0.0424,0.018,0.0162,0.0019,0.0023,0,0,0,0,0]}],[{"header":{"parameterUnit":"m.s-1","parameterCategory":2,"la1":30.2991,"la2":30.254,"lo1":-89.0895,"lo2":-89.0444,"dy":0.0017,"dx":0.0017,"nx":28,"ny":28,"refTime":"2023-03-22T21:00:00:Z","depth":"4","parameterNumber":2,"parameterNumberName":"U-component_of_CURRENTS"},"data":[0,0,0,0,0,0,0,0,0,0,0,0,0,0,0,0,0,0,0,0,0,0,0,0,0,0,0,0,0,0,0,0,0,0,0,0,0,0,0,0,0,0,0,0,0,0,0,0,0,0,0,0,0,0,0,0,0,0,-0.0349,-0.0349,0,-0.035,-0.035,-0.035,-0.0363,-0.0363,-0.0364,-0.0364,-0.0369,-0.0368,-0.0368,0,0,0,0,0,0,0,0,0,0,0,0,0,-0.0364,-0.0363,-0.0349,-0.0349,-0.0349,-0.035,-0.035,-0.035,-0.0363,-0.0363,-0.0364,-0.0364,-0.0369,-0.0368,-0.0368,0,0,0,0,0,0,0,0,0,0,0,0,0,-0.036,-0.0363,-0.0349,-0.0356,-0.0357,-0.035,-0.035,-0.035,-0.0363,-0.0363,-0.0364,-0.0364,-0.0369,-0.0368,-0.0368,-0.0355,0,0,-0.0367,-0.0367,0,0,0,0,0,0,0,0,-0.036,-0.0359,-0.0355,-0.0356,-0.0356,-0.0357,-0.0357,-0.0352,-0.0362,-0.036,-0.0364,-0.0365,-0.0365,-0.0365,-0.0363,-0.0355,-0.0355,-0.0367,-0.0367,-0.0367,-0.0367,0,0,0,0,0,0,0,-0.036,-0.0359,-0.0349,-0.0355,-0.0356,-0.0361,-0.0361,-0.0356,-0.0359,-0.036,-0.0361,-0.0362,-0.0366,-0.0363,-0.0363,-0.0355,-0.0367,-0.0367,-0.0366,-0.0366,-0.0261,-0.0259,0,0,0,0,0,0,-0.036,-0.0359,-0.0349,-0.0349,-0.036,-0.036,-0.036,-0.0356,-0.0359,-0.036,-0.0361,-0.0363,-0.0364,-0.0364,-0.0364,-0.0308,-0.0367,-0.0366,-0.0366,-0.0264,-0.0261,-0.0258,0,0,0,0,0,0,-0.036,-0.0359,-0.0349,-0.0355,-0.0354,-0.036,-0.0355,-0.0356,-0.0359,-0.036,-0.0361,-0.0365,-0.0364,-0.0364,-0.0353,-0.031,-0.0366,-0.0366,-0.0267,-0.0263,-0.0259,-0.0222,0,0,0,0,0,0,-0.0361,-0.0359,-0.0358,-0.0355,-0.0354,-0.0349,-0.0354,-0.0355,-0.0359,-0.036,-0.0363,-0.0364,-0.0365,-0.0353,-0.0352,-0.031,-0.0366,-0.027,-0.0265,-0.026,-0.0226,-0.0217,-0.0209,0,0,0,0,0,-0.0361,-0.036,-0.0358,-0.0357,-0.0351,-0.0349,-0.0349,-0.0354,-0.0358,-0.0359,-0.0353,-0.0364,-0.032,-0.0352,-0.0351,-0.0308,-0.0272,-0.0266,-0.0261,-0.023,-0.0219,-0.021,0,0,0,0,0,0,-0.0367,-0.0361,-0.0359,-0.0356,-0.0353,-0.0351,-0.0355,-0.0355,-0.0351,-0.0353,-0.0352,-0.0352,-0.0322,-0.0316,-0.0351,-0.0257,-0.0289,-0.0283,-0.0266,-0.0255,-0.0247,-0.0242,-0.0365,0,0,0,0,0,-0.0366,-0.0366,-0.0358,-0.0358,-0.0355,-0.0354,-0.0354,-0.0356,-0.0351,-0.0351,-0.0342,-0.0321,-0.0294,-0.0281,-0.0265,-0.0227,-0.0242,-0.0188,-0.0179,-0.0172,-0.0163,-0.0152,-0.0143,-0.0239,-0.0239,-0.0239,0,0,-0.0369,-0.0367,-0.0366,-0.0359,-0.0358,-0.035,-0.0356,-0.0357,-0.0342,-0.0351,-0.0324,-0.0305,-0.028,-0.0233,-0.0215,-0.0226,-0.0154,-0.0165,-0.016,-0.0154,-0.0146,-0.0137,-0.0129,-0.0235,-0.0235,-0.0236,0,0,-0.0375,-0.0371,-0.037,-0.0367,-0.0364,-0.0356,-0.0356,-0.0344,-0.0331,-0.0301,-0.0292,-0.0252,-0.0214,-0.0181,-0.016,-0.0093,-0.0118,-0.0071,-0.0018,-0.0007,-0.0001,0.0005,-0.0019,-0.0015,-0.0056,-0.0056,-0.0056,0,-0.0378,-0.0373,-0.037,-0.0368,-0.0363,-0.0356,-0.035,-0.0331,-0.0312,-0.0285,-0.0286,-0.0197,-0.0184,-0.0115,-0.0076,-0.0076,-0.0085,-0.0068,-0.0,0.0006,0.0011,-0.0015,-0.0012,-0.0053,-0.0054,-0.0054,-0.0054,0,-0.0379,-0.0376,-0.0376,-0.0364,-0.0358,-0.0354,-0.0329,-0.0307,-0.0279,-0.0245,-0.0174,-0.0141,-0.0078,-0.0055,-0.0042,0.0028,0.0002,-0.0006,-0.0038,0.0022,-0.0008,-0.0006,-0.005,-0.0051,-0.0051,-0.0052,0,0,-0.038,-0.0376,-0.0377,-0.0369,-0.0356,-0.0348,-0.0316,-0.027,-0.0231,-0.018,-0.0117,-0.004,-0.0001,0.0028,0.0056,0.008,0.0109,0.007,0.0069,0.0025,0.0112,0.0059,0.0055,0.0113,0.0114,0.0115,0.0067,0,-0.0379,-0.0372,-0.037,-0.0355,-0.0344,-0.0329,-0.0293,-0.025,-0.0198,-0.0131,-0.0066,0.0009,0.0027,0.0075,0.0104,0.0108,0.0123,0.0122,0.008,0.0078,0.0006,0.006,0.0119,0.0069,0.007,0.007,0.007,0,-0.0373,-0.0368,-0.0357,-0.0336,-0.0329,-0.0313,-0.0253,-0.0217,-0.0127,-0.0078,0.0009,0.0059,0.0137,0.0134,0.0166,0.0166,0.0155,0.0143,0.014,0.0081,0.0031,0.0005,0.0075,0.0074,0.0074,0.0074,0.0074,0,-0.0364,-0.0355,-0.0344,-0.034,-0.0314,-0.0294,-0.0262,-0.0189,-0.0141,-0.0026,0.0025,0.011,0.0163,0.0172,0.0167,0.0178,0.0158,0.0161,0.0093,0.0087,0.0127,0.0121,0.0176,0.0176,0.0176,0.0176,0.0176,0,-0.0355,-0.0348,-0.0336,-0.033,-0.0299,-0.0275,-0.0217,-0.0169,-0.0087,-0.003,0.0071,0.0105,0.018,0.0181,0.0167,0.0128,0.0157,0.0109,0.0083,0.0143,0.014,0.0127,0.0122,0.0174,0.0175,0.0175,0.0175,0,-0.0349,-0.0345,-0.0334,-0.031,-0.0296,-0.0265,-0.0203,-0.0158,-0.0073,-0.0002,0.0041,0.0118,0.011,0.0131,0.0122,0.0122,0.0086,0.0057,0.0094,0.0069,0.0006,0.0004,-0.0,-0.0002,-0.0004,-0.0005,-0.0007,0,-0.0345,-0.0338,-0.0324,-0.0314,-0.0304,-0.0255,-0.0222,-0.0147,-0.0108,-0.0028,-0.0009,0.0029,0.0063,0.0014,0.0021,-0.0011,-0.0013,-0.0007,0.0046,0.0019,-0.0006,-0.0005,-0.0005,-0.0009,-0.001,-0.001,-0.0011,0,-0.034,-0.034,-0.0334,-0.0316,-0.0293,-0.0264,-0.0218,-0.0191,-0.0116,-0.005,-0.003,-0.0007,-0.0029,-0.0032,-0.0047,-0.0079,0.0014,-0.0024,-0.002,0.003,0.0008,-0.0015,-0.0012,-0.0016,-0.0016,-0.0015,-0.0015,0,-0.0339,-0.0336,-0.0334,-0.0315,-0.0293,-0.028,-0.0253,-0.0218,-0.017,-0.008,-0.0109,-0.0086,-0.0058,-0.0077,-0.0122,-0.0122,-0.0108,-0.0064,-0.0057,-0.005,-0.0043,-0.0077,-0.0141,0,0,0,0,0,-0.0329,-0.0329,-0.0328,-0.0308,-0.0291,-0.0285,-0.0256,-0.0232,-0.0176,-0.0159,-0.0117,-0.0143,-0.0144,-0.0157,-0.017,-0.0177,-0.0131,-0.0191,-0.0082,-0.0049,-0.0042,-0.0028,0,0,0,0,0,0,-0.0324,-0.0325,-0.0333,-0.0311,-0.0297,-0.028,-0.0273,-0.0246,-0.0233,-0.0176,-0.0193,-0.013,-0.0161,-0.0138,-0.0166,-0.0168,-0.0094,-0.0182,-0.0181,-0.0053,-0.0047,-0.0041,-0.0024,0,0,0,0,0]},{"header":{"parameterUnit":"m.s-1","parameterCategory":2,"la1":30.2991,"la2":30.254,"lo1":-89.0895,"lo2":-89.0444,"dy":0.0017,"dx":0.0017,"nx":28,"ny":28,"refTime":"2023-03-22T21:00:00:Z","depth":"4","parameterNumber":3,"parameterNumberName":"V-component_of_CURRENTS"},"data":[0,0,0,0,0,0,0,0,0,0,0,0,0,0,0,0,0,0,0,0,0,0,0,0,0,0,0,0,0,0,0,0,0,0,0,0,0,0,0,0,0,0,0,0,0,0,0,0,0,0,0,0,0,0,0,0,0,0,0.0518,0.0518,0,0.054,0.0541,0.0541,0.0564,0.0565,0.0565,0.0566,0.0612,0.0612,0.0613,0,0,0,0,0,0,0,0,0,0,0,0,0,0.0485,0.0486,0.0518,0.0518,0.0519,0.054,0.0541,0.0541,0.0564,0.0565,0.0565,0.0566,0.0611,0.0612,0.0613,0,0,0,0,0,0,0,0,0,0,0,0,0,0.0502,0.0486,0.0518,0.0534,0.0535,0.054,0.0541,0.0541,0.0564,0.0565,0.0565,0.0566,0.0611,0.0612,0.0613,0.0609,0,0,0.0617,0.0618,0,0,0,0,0,0,0,0,0.0501,0.0503,0.0531,0.0533,0.0535,0.0551,0.0546,0.0565,0.0564,0.0552,0.0566,0.0566,0.0594,0.0596,0.0598,0.0611,0.0613,0.0617,0.0618,0.0619,0.0619,0,0,0,0,0,0,0,0.05,0.0502,0.0526,0.0531,0.0533,0.0536,0.0539,0.055,0.0569,0.0553,0.0555,0.0559,0.0595,0.0596,0.0599,0.0614,0.0617,0.0619,0.0619,0.062,0.0663,0.0663,0,0,0,0,0,0,0.0499,0.0501,0.0525,0.0527,0.052,0.0536,0.054,0.0544,0.0568,0.0573,0.0559,0.056,0.0594,0.0597,0.0601,0.0631,0.0619,0.062,0.0621,0.0662,0.0663,0.0663,0,0,0,0,0,0,0.0498,0.0501,0.0524,0.0515,0.0518,0.0536,0.0541,0.0545,0.0563,0.0572,0.0577,0.0575,0.0594,0.0599,0.0628,0.0632,0.0621,0.0622,0.0662,0.0663,0.0663,0.067,0,0,0,0,0,0,0.0497,0.05,0.0509,0.0515,0.0519,0.0532,0.0541,0.0545,0.0563,0.0566,0.0588,0.0592,0.0595,0.0626,0.0629,0.0633,0.0623,0.0662,0.0662,0.0663,0.0669,0.0671,0.0672,0,0,0,0,0,0.0496,0.0499,0.051,0.0513,0.0529,0.0532,0.0534,0.0548,0.0564,0.0568,0.0592,0.0592,0.0632,0.0627,0.0631,0.0636,0.0661,0.0662,0.0663,0.0669,0.067,0.0672,0,0,0,0,0,0,0.0492,0.0502,0.0514,0.0522,0.0531,0.0536,0.0545,0.0557,0.0578,0.0589,0.0602,0.0607,0.0631,0.0635,0.0629,0.065,0.0645,0.0646,0.0648,0.0649,0.0651,0.0635,0.0624,0,0,0,0,0,0.0495,0.0502,0.0511,0.0521,0.0526,0.054,0.0548,0.0557,0.0574,0.0584,0.061,0.0628,0.0633,0.0644,0.0655,0.0671,0.0652,0.0674,0.0676,0.0677,0.0667,0.0638,0.0635,0.0666,0.0666,0.0666,0,0,0.0498,0.0505,0.0511,0.0522,0.0532,0.0539,0.0546,0.0559,0.0574,0.0586,0.0629,0.0638,0.0639,0.0655,0.0665,0.0662,0.0662,0.0678,0.0679,0.0668,0.0638,0.0635,0.0632,0.0667,0.0667,0.0667,0,0,0.05,0.0513,0.0518,0.0522,0.0537,0.0547,0.0554,0.0577,0.0595,0.063,0.0636,0.0648,0.0683,0.0672,0.0669,0.0684,0.0669,0.0695,0.0689,0.0661,0.0658,0.0655,0.0638,0.0633,0.0695,0.0695,0.0695,0,0.0504,0.0512,0.052,0.0522,0.0531,0.0553,0.0561,0.0576,0.0612,0.0626,0.0649,0.0674,0.0683,0.0667,0.0675,0.0684,0.0672,0.0683,0.0661,0.0658,0.0654,0.0637,0.0632,0.0695,0.0695,0.0695,0.0695,0,0.0503,0.0513,0.0516,0.053,0.054,0.0549,0.0569,0.0593,0.063,0.065,0.067,0.0678,0.0688,0.069,0.069,0.0667,0.0667,0.0665,0.0653,0.0651,0.0634,0.0628,0.0696,0.0696,0.0696,0.0696,0,0,0.0501,0.0514,0.0517,0.0524,0.0545,0.0551,0.0575,0.0598,0.0615,0.0652,0.0666,0.0673,0.0683,0.0679,0.0674,0.0649,0.0622,0.0651,0.0649,0.0627,0.0568,0.0551,0.0543,0.0617,0.0616,0.0615,0.0569,0,0.0502,0.051,0.0518,0.0533,0.054,0.0558,0.0585,0.0608,0.0634,0.0657,0.0653,0.0677,0.0676,0.0687,0.0656,0.0631,0.0605,0.0635,0.0579,0.0577,0.0556,0.0535,0.0611,0.0565,0.0563,0.0562,0.0562,0,0.0496,0.0505,0.0523,0.0542,0.0548,0.0573,0.0604,0.0627,0.0649,0.067,0.067,0.0677,0.0652,0.0657,0.0595,0.0616,0.0592,0.0568,0.0566,0.0539,0.0548,0.0566,0.0551,0.0552,0.0552,0.0553,0.0554,0,0.0491,0.0504,0.0524,0.0528,0.0558,0.0584,0.0618,0.0649,0.0676,0.0686,0.0705,0.0668,0.0676,0.062,0.0585,0.0592,0.0511,0.0515,0.0471,0.0471,0.0497,0.0501,0.0461,0.0461,0.0461,0.0462,0.0462,0,0.0479,0.0492,0.0533,0.0541,0.0582,0.0606,0.0657,0.0673,0.0708,0.0733,0.0726,0.0704,0.0669,0.0625,0.0574,0.0503,0.0504,0.0457,0.0449,0.0505,0.051,0.0494,0.0498,0.046,0.046,0.0461,0.0461,0,0.0463,0.0489,0.0509,0.0557,0.0584,0.0621,0.0703,0.0725,0.0766,0.0788,0.0801,0.0751,0.0671,0.0625,0.0534,0.0506,0.043,0.0407,0.0474,0.0473,0.0411,0.0417,0.0343,0.0342,0.0341,0.034,0.0339,0,0.0452,0.0463,0.0524,0.0553,0.0585,0.0653,0.0701,0.0759,0.0769,0.0792,0.0776,0.0733,0.0688,0.0526,0.0476,0.0383,0.0375,0.0369,0.0378,0.0394,0.0395,0.0402,0.0408,0.0338,0.0338,0.0337,0.0337,0,0.0426,0.0459,0.0482,0.0545,0.0602,0.065,0.0713,0.0721,0.0772,0.0821,0.0736,0.0682,0.0586,0.047,0.0425,0.0351,0.0387,0.0359,0.0361,0.0368,0.0387,0.039,0.0398,0.0334,0.0334,0.0334,0.0335,0,0.0413,0.0427,0.0471,0.0522,0.0589,0.062,0.0657,0.0661,0.0687,0.0714,0.0668,0.0595,0.0568,0.0451,0.0382,0.0336,0.032,0.0331,0.0334,0.0337,0.0354,0.0379,0.0301,0,0,0,0,0,0.0398,0.0414,0.0445,0.0496,0.0555,0.0603,0.0644,0.0668,0.0718,0.0653,0.067,0.0571,0.0474,0.0398,0.0337,0.036,0.0318,0.0293,0.0334,0.0315,0.0319,0.0338,0,0,0,0,0,0,0.0387,0.042,0.0431,0.0469,0.0503,0.0563,0.0592,0.0619,0.0563,0.0602,0.0506,0.0575,0.0429,0.05,0.0336,0.0327,0.0351,0.0267,0.0267,0.0312,0.0316,0.0319,0.0341,0,0,0,0,0]}]]